Location: Clyde
(45.1830°S, 169.3170°E)
Time: 08:49:04
(UTC+13:00)

ARGOS - Pass Details

Date: 24 January 2019
Orbit: 821 x 834 km, 98.5° (Epoch: 16 October)

Event Time Altitude Azimuth Distance (km) Brightness Sun altitude
Rises 23:09:40 0° 166° (SSE) 3,397 6.9 -15.5°
Reaches altitude 10° 23:12:03 10° 165° (SSE) 2,456 6.1 -15.7°
Maximum altitude 23:17:31 85° 77° (ENE) 841 3.1 -16.3°
Enters shadow 23:22:31 12° 347° (NNW) 2,275 5.1 -16.9°
